Location: Burkes Observatory
(44.7598°N, 69.4315°W)
Time: 12:21:35
(UTC-04:00)

Daily predictions for brighter satellites

Satellite Brightness Start Highest point End
(mag) Time Altitude Azimuth Time Altitude Azimuth Time Altitude Azimuth
Nadezhda 1 Rocket 4.1 20:36:14 10° S 20:42:30 65° E 20:48:51 10° NNE
Cosmos 2112 Rocket 4.1 20:39:13 10° SSW 20:44:27 90° WNW 20:49:41 10° NNE
ARGOS 4.3 20:40:28 10° ESE 20:45:04 29° ENE 20:49:42 10° N
Cosmos 192 4.3 20:43:15 10° SSW 20:48:08 84° ESE 20:53:05 10° NNE
Helios 1A 3.3 20:44:26 10° S 20:48:38 72° WSW 20:52:51 10° NNW
Cosmos 1624 Rocket 4.2 20:43:59 10° NNW 20:49:16 65° ENE 20:54:32 10° SSE
Cosmos 405 Rocket 3.8 20:49:09 10° SSW 20:52:50 48° WNW 20:56:36 10° N
Cosmos 2228 4.3 20:51:43 10° NNE 20:55:16 24° ENE 20:58:46 10° SE
Cosmos 921 Rocket 3.6 20:51:33 10° N 20:55:51 43° ENE 21:00:03 10° SE
SL-27 R/B 3.3 20:54:24 10° SSW 20:58:00 58° WNW 21:01:37 10° NNE
Cosmos 1441 Rocket 3.3 20:55:16 10° SSW 20:59:00 79° W 21:02:45 10° N
Cosmos 2154 Rocket 4.1 20:53:40 10° N 21:00:02 70° E 21:06:21 10° SSE
Helios 1B rocket 2.7 20:57:31 10° N 21:01:40 74° WNW 21:05:47 10° SSW
H-2A R/B 3.3 20:57:49 10° ESE 21:01:48 25° ENE 21:05:53 10° N
Tiangong 2 1.2 21:00:23 10° WSW 21:03:32 59° S 21:06:40 10° E
Aureole 1 Rocket 3.8 21:05:38 10° SW 21:08:33 37° WNW 21:11:23 10° N
Meteor 1-23 Rocket 4.2 21:03:02 10° S 21:08:37 87° E 21:14:17 10° N
Cosmos 2056 Rocket 3.5 21:03:45 10° NNW 21:08:58 88° ENE 21:14:04 10° SSE
Cosmos 967 Rocket 4.5 21:03:37 10° SSW 21:09:47 65° ESE 21:16:00 10° NE
Cosmos 839 Rocket 4.4 21:04:44 10° NNW 21:11:16 82° NE 21:18:51 11° SE
Envisat 4.0 21:06:49 10° S 21:11:40 45° W 21:16:33 10° NNW
Lacrosse 5 rocket 3.9 21:13:31 10° NW 21:16:56 20° NNE 21:20:22 10° ENE
Cosmos 1892 Rocket 3.8 21:12:55 10° S 21:17:13 52° E 21:21:30 10° NNE
Cosmos 2082 Rocket 2.7 21:12:32 10° S 21:17:41 37° ESE 21:22:51 10° NE
Cosmos 2278 3.8 21:12:18 10° NNW 21:18:03 78° ENE 21:23:15 13° SSE
Terra 3.6 21:16:46 10° ESE 21:20:04 19° ENE 21:23:22 10° NNE
Meteor 1-4 Rocket 3.8 21:18:47 10° NNE 21:21:50 25° ENE 21:23:56 15° ESE
YAOGAN 6 3.4 21:20:47 10° S 21:24:10 48° W 21:27:36 10° NNW
Okean 1-7 Rocket 4.3 21:19:49 10° SSW 21:24:13 57° W 21:28:42 10° N
Cosmos 1606 Rocket 3.6 21:21:50 10° N 21:26:10 83° W 21:30:29 10° S
Okean 2 3.6 21:22:50 10° SSW 21:26:55 75° W 21:31:01 10° N
SPOT 5 2.7 21:28:06 15° SSE 21:31:39 63° ENE 21:36:01 10° N
Cosmos 1025 Rocket 3.9 21:28:09 10° SSW 21:32:17 51° WNW 21:36:29 10° N
Cosmos 1656 3.7 21:27:11 10° NNW 21:32:40 72° ENE 21:37:02 16° SSE
Cosmos 1697 Rocket 3.0 21:28:07 10° NNW 21:33:38 54° ENE 21:37:54 17° SE
MOS 1-B Rocket 4.1 21:29:13 10° SSE 21:35:02 87° WSW 21:41:48 10° NNW
Cosmos 1726 Rocket 3.6 21:30:46 10° N 21:35:06 80° W 21:39:07 12° S
Cosmos 2341 Rocket 4.1 21:29:35 10° N 21:35:59 87° W 21:42:22 10° S
SL-24 DEB 4.3 21:33:57 14° SSE 21:37:54 68° E 21:42:32 10° N
Cosmos 2369 3.8 21:32:53 10° NNW 21:38:38 76° WSW 21:43:25 15° SSE
Cosmos 1452 Rocket 3.6 21:35:28 10° NNW 21:40:45 71° ENE 21:44:39 18° SSE
SL-08 RB Rocket 3.7 21:38:11 17° SSE 21:41:33 67° ENE 21:46:01 10° N
COSMOS 2487 2.4 21:39:06 10° SSW 21:42:40 87° ESE 21:46:16 10° NNE
SL-16 R/B 4.2 21:39:04 10° N 21:42:56 18° NE 21:46:46 10° E
Cosmos 2218 Rocket 4.2 21:38:09 10° N 21:44:14 58° ENE 21:48:52 18° SSE
MetOp-A 4.4 21:41:22 11° S 21:46:28 69° WSW 21:51:51 10° NNW
ERS-1 Rocket 3.7 21:41:54 10° S 21:46:45 50° W 21:51:39 10° NNW
USA 245 1.9 21:47:12 32° S 21:48:09 84° WSW 21:50:26 10° NNW
Cosmos 1833 Rocket 2.7 21:45:03 10° S 21:50:35 64° ESE 21:56:10 10° NNE
SPOT 1/Viking Rocket 3.5 21:49:30 19° SSE 21:53:18 76° ENE 21:58:28 10° N
ISS -1.8 21:50:34 10° W 21:53:33 30° NNW 21:56:31 10° NE
Cosmos 2058 Rocket 3.3 21:50:33 10° NNW 21:54:57 67° W 21:58:31 16° S
IGS 5A 4.4 21:56:06 22° ESE 21:58:06 34° ENE 22:01:52 10° N
ATLAS CENTAUR R/B 3.5 21:57:18 10° N 21:59:34 15° NE 22:01:49 10° ENE
Iridium 43 3.8 21:57:54 10° N 22:00:07 58° W 22:00:46 37° SSW
Cosmos 1271 Rocket 3.7 22:00:23 10° N 22:03:58 33° ENE 22:05:23 25° ESE
Cosmos 1842 4.4 22:03:31 24° ESE 22:04:24 26° E 22:07:43 10° NNE
Cosmos 2181 Rocket 4.3 22:00:08 10° SSW 22:06:28 70° W 22:12:44 10° N
USA 229 DEB 4.0 22:00:04 10° NW 22:07:12 69° NE 22:12:17 21° SE
USA 229 4.0 22:00:10 10° NW 22:07:17 69° NE 22:12:23 21° SE
Cosmos 468 4.5 22:05:25 13° S 22:10:05 70° ESE 22:15:22 10° NNE
Cosmos 1066 Rocket 4.2 22:06:49 12° S 22:11:58 87° W 22:17:42 10° N
Meteor 2-21 4.4 22:06:35 10° N 22:12:39 86° E 22:16:42 22° S
H-2A R/B 2.5 22:11:41 28° SE 22:13:50 53° ENE 22:18:14 10° N
Cosmos 1544 4.0 22:10:56 10° N 22:14:14 32° ENE 22:15:06 29° ESE
Cosmos 1812 Rocket 3.7 22:09:54 10° N 22:14:21 60° E 22:16:19 31° SSE
Meteor 2-21 Rocket 4.4 22:11:24 10° N 22:17:30 77° E 22:21:10 25° SSE
Cosmos 2360 Rocket 4.4 22:17:24 10° N 22:20:46 16° NE 22:24:05 10° ENE
Cosmos 864 Rocket 4.5 22:14:54 10° N 22:21:14 89° W 22:25:17 23° S
Cosmos 158 Rocket 4.1 22:19:00 23° S 22:22:10 58° ESE 22:27:28 10° NNE
Cosmos 1980 Rocket 2.2 22:17:11 10° NNW 22:22:52 78° ENE 22:25:49 29° SSE
Cosmos 1626 Rocket 3.5 22:21:47 24° S 22:24:21 84° W 22:28:42 10° N
ARGOS 4.1 22:20:51 14° SSW 22:25:07 42° W 22:30:17 10° NNW
CZ-4 R/B 4.4 22:22:36 10° NNE 22:27:24 42° E 22:29:05 32° SE
Orbus 7S? 4.1 22:23:58 10° NW 22:31:21 64° NNE 22:33:12 29° ESE
CZ-4B R/B 4.0 22:28:50 10° NNE 22:33:41 41° E 22:35:16 33° SE
Cosmos 1953 3.2 22:30:40 10° N 22:34:29 37° ENE 22:35:24 32° ESE
Cosmos 2322 Rocket 3.1 22:29:16 10° NNW 22:34:36 38° NE 22:37:39 22° ESE
Cosmos 1825 Rocket 4.0 22:37:25 38° SE 22:38:17 43° E 22:42:23 10° NNE
Tiangong 2 2.0 22:37:03 10° W 22:39:21 36° SW 22:39:21 36° SW
H-2A R/B 2.8 22:38:01 21° SSW 22:40:57 44° W 22:45:50 10° NNW
Cosmos 1766 3.4 22:37:29 10° NNW 22:41:22 66° W 22:42:36 40° SSW
Landsat 7 4.3 22:40:01 28° SSW 22:42:22 55° W 22:47:04 10° NNW
Meteor 1-21 4.2 22:41:30 26° S 22:44:51 88° E 22:50:39 10° N
PSLV R/B 3.0 22:46:03 73° N 22:46:03 73° N 22:48:39 10° NNW
Cosmos 2366 rocket 4.5 22:40:19 10° NNW 22:46:18 55° W 22:50:17 21° SSW
SL-19 R/B 4.2 22:47:43 50° SSE 22:48:42 81° ENE 22:52:22 10° NNW
CZ-2C R/B 4.3 22:48:14 10° NE 22:52:09 19° E 22:52:59 19° ESE
Cosmos 1470 3.7 22:52:48 10° N 22:56:30 35° ENE 22:56:59 34° E
Lacrosse 5 rocket 2.4 22:52:40 10° NW 22:57:11 47° NNE 22:59:32 25° E
Terra 2.2 22:55:30 33° SSW 22:57:23 55° W 23:02:05 10° NNW
Cosmos-2242 3.9 22:55:48 10° N 22:59:44 33° ENE 23:00:26 31° E
Cosmos 2082 Rocket 3.6 22:56:33 10° WSW 23:01:46 37° NW 23:06:59 10° NNE
Cosmos 1707 4.1 23:04:25 26° E 23:04:25 26° E 23:07:22 10° NNE
Meteor 2-8 Rocket 4.4 23:01:41 34° S 23:04:33 80° E 23:10:44 10° N
Cosmos 1269 Rocket 4.5 23:01:07 17° SW 23:05:06 60° WNW 23:10:22 10° NNE
Cosmos 1805 3.6 23:06:14 10° NNW 23:10:04 56° W 23:10:42 49° SW
deb Chang Zheng 4 4.1 23:08:26 10° N 23:12:40 55° WNW 23:14:27 31° SW
Cosmos 1331 Rocket 3.9 23:08:06 10° NNW 23:13:18 81° ENE 23:14:46 48° SSE
Cosmos 1110 Rocket 3.9 23:11:54 10° NNW 23:17:11 83° WSW 23:18:39 49° S
Cosmos 1697 Rocket 4.3 23:12:49 10° NW 23:17:12 24° WSW 23:19:38 18° SW
Cosmos 1758 3.5 23:13:36 10° NNW 23:17:33 60° W 23:18:04 54° SW
Cosmos 389 Rocket 2.6 23:15:10 10° NNW 23:18:31 64° W 23:18:31 64° W
USA 267 3.6 23:15:56 10° ENE 23:22:00 40° SE 23:22:58 38° SSE
Cosmos 1302 Rocket 4.3 23:17:17 10° NNW 23:22:31 58° ENE 23:24:06 41° ESE
Spot 4 4.1 23:21:37 44° SSW 23:22:53 59° W 23:27:39 10° NNW
Lacrosse 5 1.9 23:25:30 54° SSE 23:25:48 55° SE 23:30:46 10° NE
SL-16 R/B 2.1 23:22:09 10° NNW 23:27:52 89° SW 23:29:33 48° SSE
Cosmos 1934 Rocket 4.0 23:23:21 10° N 23:29:46 84° E 23:32:02 43° SSE
ISS -1.5 23:27:54 10° NW 23:30:41 24° N 23:33:28 10° ENE
NOSS 3-1 (C) 4.0 23:23:26 10° NW 23:31:00 82° SW 23:34:52 36° SSE
SeaSat 1 3.3 23:30:49 29° ESE 23:32:44 42° NE 23:37:22 10° NNW
CZ-2C R/B 3.7 23:33:01 38° ESE 23:34:48 53° ENE 23:40:22 10° N
ATLAS CENTAUR R/B 1.4 23:35:19 10° NW 23:38:30 58° WNW 23:38:30 58° WNW
CZ-4C R/B 4.3 23:45:30 33° W 23:45:30 33° W 23:48:42 10° NNW
Cosmos 1758 Rocket 4.3 23:47:43 39° WSW 23:48:40 46° WNW 23:52:54 10° N
Cosmos 1733 3.6 23:45:01 10° NNW 23:48:41 53° W 23:48:41 53° W
Cosmos 2251 Rocket 3.6 23:47:56 45° SSW 23:49:37 80° WNW 23:55:02 10° NNE
H-2A R/B 4.2 23:48:48 15° WSW 23:50:07 17° W 23:53:07 10° NW
Cosmos 1842 Rocket 3.9 23:47:14 10° N 23:51:39 54° ENE 23:52:04 51° E
Cosmos 972 4.4 23:48:02 10° NNW 23:53:30 89° ENE 23:54:28 60° SSE
Cosmos 2322 4.2 23:48:38 10° NNW 23:54:12 54° ENE 23:56:14 36° ESE
